Regional Weather Roundup
Issued by NWS Kansas City/Pleasant Hill, MO

Home | Current Version | Previous Version | Graphics & Text | Print | Product List | Glossary Off
Versions: 1 2 3 4 5 6 7 8 9 10 11 12 13 14 15 16 17 18 19 20 21 22 23 24 25 26 27 28 29 30 31 32 33 34 35 36 37 38 39 40 41 42 43 44 45 46 47 48 49 50

000
ASUS43 KEAX 230810
RWREAX

WEATHER ROUNDUP FOR EASTERN KANSAS AND NORTHWEST MISSOURI
NATIONAL WEATHER SERVICE KANSAS CITY/PLEASANT HILL MO
300 AM CDT SAT MAY 23 2015

KSZ040-057-103>105-MOZ028-029-037-043-230900-
...KANSAS CITY METROPOLITAN AREA...

CITY           SKY/WX    TMP DP  RH WIND       PRES   REMARKS
K.C. INTL      CLOUDY    61  51  70 SE8       30.20S
K.C. DOWNTOWN  CLOUDY    63  49  60 SE5       30.19S
LEES SUMMIT    CLOUDY    61  49  64 SE5       30.21S
OLATHE - IXD   CLOUDY    60  51  72 SE14      30.20S
OLATHE - OJC   CLOUDY    60  51  72 SE9       30.19S
LAWRENCE       CLOUDY    60  52  74 SE6       30.19S

$$

MOZ001>008-011>017-020>025-030>033-038>040-044>046-053-054-230900-
...NORTHERN AND CENTRAL MISSOURI...

CITY           SKY/WX    TMP DP  RH WIND       PRES   REMARKS
ST. JOSEPH     CLOUDY    59  52  77 SE8       30.20S
MOSBY          CLOUDY    59  54  82 CALM      30.21S
WARRENSBURG    CLOUDY    61  50  67 SE5       30.22R
WHITEMAN AFB   CLOUDY    61  51  67 SE8       30.21S
CLINTON        CLOUDY    61  54  77 SE6       30.23S
SEDALIA        CLOUDY    61  54  77 S7        30.24S
WARSAW         NOT AVBL
CHILLICOTHE      N/A     60  54  80 CALM      30.23S
KIRKSVILLE     PTCLDY    52  51  97 CALM      30.25S

$$

MOZ041-047>049-056>058-063>065-088>090-097-230900-
...EASTERN AND SOUTHERN MISSOURI...

CITY           SKY/WX    TMP DP  RH WIND       PRES   REMARKS
ST. LOUIS INTL CLOUDY    65  51  60 CALM      30.26R
SPIRIT OF STL  MOCLDY    60  56  86 CALM      30.25R
COLUMBIA       CLOUDY    61  53  75 SE6       30.25S
JEFFERSON CITY CLOUDY    61  55  81 E3        30.25R
ROLLA          CLOUDY    58  51  78 S5        30.25R
OSAGE BEACH    CLOUDY    61  50  67 E5        30.25S
SPRINGFIELD    CLOUDY    59  48  67 SE13      30.21F
BRANSON        CLOUDY    55  50  82 CALM      30.24S
JOPLIN         CLOUDY    60  50  69 SE9       30.19S
WEST PLAINS    CLOUDY    58  50  75 CALM      30.27S

$$

IAZ060-094-KSZ022-034>040-054-083-096-NEZ052-066-093-230900-
...KANSAS...SOUTHEAST NEBRASKA AND IOWA...

CITY           SKY/WX    TMP DP  RH WIND       PRES   REMARKS
TOPEKA         CLOUDY    60  53  77 SE7       30.18S
MANHATTAN      CLOUDY    58  53  84 CALM      30.17S
EMPORIA        CLOUDY    55  54  96 S5        30.18S
CHANUTE        CLOUDY    58  55  90 S3        30.19R
WICHITA        CLOUDY    55  54  96 SE8       30.15F FOG
OMAHA          CLOUDY    59  50  72 SE7       30.20R
LINCOLN        CLOUDY    57  48  72 S7        30.20R
FALLS CITY     CLOUDY    56  51  84 SE3       30.19R
LAMONI         MOCLDY    58  51  78 E3        30.23R
DES MOINES     MOCLDY    57  49  74 S7        30.23R

$$




USA.gov is the U.S. government's official web portal to all federal, state and local government web resources and services.